#timestamp,LO_Frequency,Hit,StdDev 
1645416015.4,286046997.3,N
1645416035.2,286046995.7,N
1645416055.1,286046993.7,N
1645416056.0,286046993.7,N
1645416075.8,286046997.6,N
1645416095.7,286046991.9,N
1645416115.5,286046993.2,N
1645416135.3,286046992.7,N
1645416155.2,286046991.8,N
1645416175.9,286046997.7,N
1645416195.7,286046997.2,N
1645416215.6,286047000.7,N
1645416235.4,286046995.8,N
1645416255.2,286046994.5,N
1645416275.1,286046993.6,N
1645416276.0,286046993.6,N
1645416295.8,286046995.6,N
1645416315.7,286046995.7,N
1645416335.5,286046995.0,N
1645416355.3,286046995.5,N
1645416375.2,286046997.2,N
1645416395.0,286046996.6,N
1645416395.9,286046996.6,N
1645416415.8,286046995.6,N
1645416435.6,286046994.2,N
1645416455.4,286046995.5,N
1645416475.3,286046996.2,N
1645416495.1,286046995.1,N
1645416515.8,286046995.0,N
1645416535.7,286046999.5,N
1645416555.5,286046998.2,N
1645416575.4,286046998.9,N
1645416595.2,286046998.7,N
1645416615.0,286046998.8,N
1645416615.9,286046998.8,N
1645416635.8,286046996.4,N
1645416655.6,286046989.8,Y
1645416675.4,286046995.0,P
1645416695.3,286047000.4,N
1645416715.1,286047000.5,N
1645416735.9,286047000.3,N
1645416755.7,286047001.1,N
1645416775.5,286046998.2,N
1645416795.4,286046996.2,N
1645416815.2,286046993.0,Y
1645416835.0,286046990.4,P
1645416836.0,286046990.4,N
1645416855.8,286046993.2,N
1645416875.6,286046997.3,N
1645416895.5,286046995.0,N
1645416915.3,286046993.9,N
1645416935.1,286046995.3,N
1645416955.9,286046997.4,N
1645416975.7,286046994.9,N
1645416995.6,286047001.2,N
1645417015.4,286046999.6,N
1645417035.2,286046999.0,N
1645417055.1,286046999.6,N
1645417056.0,286046999.6,N
1645417075.8,286046997.3,N
1645417095.6,286046997.2,N
1645417115.5,286047001.2,N
1645417135.3,286047001.8,N
1645417155.2,286047001.7,N
1645417175.9,286047007.4,N
1645417195.7,286047001.9,N
1645417215.6,286047002.7,N
1645417235.4,286046995.5,N
1645417255.2,286046991.8,N
1645417275.1,286046993.5,N
1645417276.0,286046993.5,N
1645417295.8,286046991.0,N
1645417315.7,286046991.5,N
1645417335.5,286046988.5,N
1645417355.3,286046987.5,N
1645417375.2,286046992.0,N
1645417395.0,286046991.9,N
1645417395.9,286046991.9,N
1645417415.7,286046990.9,N
1645417435.6,286046990.8,N
1645417455.4,286046988.5,N
1645417475.3,286046988.6,N
1645417495.1,286046992.1,N
1645417496.0,286046992.1,N
1645417515.8,286046995.2,N
1645417535.7,286046999.3,N
1645417555.5,286047002.7,N
1645417575.3,286047000.4,N
1645417595.2,286047000.7,N
1645417615.0,286047001.1,N
1645417615.9,286047001.1,N
1645417635.8,286046993.3,N
1645417655.6,286046993.2,N
1645417675.4,286046995.6,N
1645417695.3,286046997.3,N
1645417715.1,286046999.9,N
1645417735.8,286046998.5,N
1645417755.7,286046995.0,N
1645417775.5,286047002.8,N
1645417795.4,286046999.8,N
1645417815.2,286046999.7,N
1645417835.0,286046996.5,N
1645417835.9,286046996.5,N
1645417855.8,286046996.9,N
1645417875.6,286046993.8,N
1645417895.5,286046999.0,N
1645417915.3,286046998.7,N
1645417935.1,286046995.2,N
1645417955.9,286046996.2,N
1645417975.7,286046992.8,N
1645417995.5,286046995.2,N
1645418015.4,286047001.2,N
1645418035.2,286047001.9,N
1645418055.0,286047001.7,N
1645418056.0,286047001.7,N
1645418075.8,286047005.4,N
1645418095.6,286047004.3,N
1645418115.5,286047002.3,N
1645418135.3,286047002.7,N
1645418155.1,286046999.3,N
1645418175.9,286046993.4,N
1645418195.7,286046994.0,N
1645418215.6,286046993.8,N
1645418235.4,286046992.2,N
1645418255.2,286046994.5,N
1645418275.1,286046993.7,N
1645418276.0,286046993.7,N
1645418295.8,286046998.0,N
1645418315.6,286046995.7,N
1645418335.5,286046994.9,N
1645418355.3,286046992.0,N
1645418375.2,286046990.3,N
1645418395.9,286046992.0,N
1645418415.7,286046993.8,N
1645418435.6,286046996.0,N
1645418455.4,286046998.1,N
1645418475.2,286047000.8,N
1645418495.1,286046998.9,N
1645418496.0,286046998.9,N
1645418515.8,286046997.1,N
1645418535.7,286046996.9,N
1645418555.5,286046997.9,N
1645418575.3,286046991.5,N
1645418595.2,286046992.8,N
1645418615.9,286046996.3,N
1645418635.7,286046999.0,N
1645418655.6,286046993.9,N
1645418675.4,286046989.4,Y
1645418695.3,286046995.8,P
1645418715.1,286046998.6,P
1645418716.0,286046998.6,N
1645418735.8,286047004.0,N
1645418755.7,286047004.2,N
1645418775.5,286047002.0,N
1645418795.3,286047003.5,N
1645418815.2,286047001.3,N
1645418835.0,286047000.3,N
1645418835.9,286047000.3,N
1645418855.8,286047003.9,N
1645418875.6,286047001.9,N
1645418895.4,286046998.8,N
1645418915.3,286046994.9,N
1645418935.1,286046995.6,N
1645418955.8,286046991.2,N
1645418975.7,286046987.7,Y
1645418995.5,286046985.6,P
1645419015.4,286046986.4,N
1645419035.2,286046990.8,N
1645419055.0,286046993.8,N
1645419055.9,286046993.8,N
1645419075.8,286046994.5,N
1645419095.6,286046988.7,N
1645419115.4,286046993.9,N
1645419135.3,286046990.2,N
1645419155.1,286046987.2,Y
1645419175.9,286046996.5,P
1645419195.7,286047004.3,N
1645419215.5,286047004.8,N
1645419235.4,286047006.2,N
1645419255.2,286047015.1,N
1645419275.0,286047021.4,N
1645419275.9,286047021.4,N
1645419295.8,286047023.8,N
1645419315.6,286047022.9,N
1645419335.5,286047025.0,N
1645419355.3,286047021.0,N
1645419375.1,286047018.7,N
1645419395.9,286047017.3,N
1645419415.7,286047017.5,N
1645419435.5,286047018.2,N
1645419455.4,286047011.5,N
1645419475.2,286047005.9,N
1645419495.1,286047004.1,N
1645419496.0,286047004.1,N
1645419515.8,286047011.8,N
1645419535.6,286047017.2,N
1645419555.5,286047016.4,N
1645419575.3,286047021.2,N
1645419595.1,286047026.7,Y
